weather.gov     
National Weather Service

Terminal Aerodrome Forecast
NWS Homepage
This page is being discontinued on March 12, 2014.
The same data is available at this site. Please update your bookmarks.
Thank you, and we apologize for the inconvenience.
Please send an email to SR-SRH.Webmaster@noaa.gov with any concerns.


Current Version
Previous Version:    01  02  03  04  05  06  07  08  09  10  11  12  13  14  15  16  17  18  19  20  21  22  23  24  25  26  27  28  29  30  
   31  32  33  
[Printable]
377
FTUS46 KPQR 250534
TAFAST
TAF
KAST 250534Z 2506/2606 10011KT P6SM SCT035 OVC050
     FM251300 19014KT 6SM -RA OVC050
     FM251900 20015G25KT 4SM -RA BKN035 OVC050
     FM260000 24020G32KT 5SM -RA BKN018 OVC025=




377
FTUS46 KPQR 250534
TAFAST
TAF
KAST 250534Z 2506/2606 10011KT P6SM SCT035 OVC050
     FM251300 19014KT 6SM -RA OVC050
     FM251900 20015G25KT 4SM -RA BKN035 OVC050
     FM260000 24020G32KT 5SM -RA BKN018 OVC025=


U.S. Dept. of Commerce
NOAA National Weather Service
1325 East West Highway
Silver Spring, MD 20910
E-mail: w-nws.webmaster@noaa.gov
Page last modified: May 16, 2007
NATIONAL WEATHER SERVICE: for Safety, for Work, for Fun - FOR LIFE